Location: Poughquag
(41.6090°N, 73.6820°W)
Time: 03:14:37
(UTC-05:00)

Amateur Radio Satellites - All Passes

Search period start: 15 December 2017 02:44
Search period end: 16 December 2017 02:44
Location: Poughquag, 41.6090°N, 73.6820°W

Satellite Date Start Highest point End Downlink Frequencies (MHz)
Time Altitude Azimuth
UKube-1 15 Dec 02:45:29 02:45:43 10° 270° (W) 02:45:57 .
BEESAT 15 Dec 02:47:43 02:52:26 66° 258° (WSW) 02:57:10 436.000
Gurwin Techsat 1B 15 Dec 03:05:16 03:09:22 23° 296° (WNW) 03:13:28 435.225
ITUPSAT 1 15 Dec 03:16:48 03:21:07 34° 263° (W) 03:25:28 437.325
ITAMSAT 1 15 Dec 03:32:57 03:38:04 58° 102° (ESE) 03:43:07 435.822/435.867
PCSat 15 Dec 03:33:26 03:38:53 81° 60° (ENE) 03:44:18 145.827
CUBESAT XI-V 15 Dec 03:48:42 03:53:09 45° 262° (W) 03:57:40 437.345
M-CUBED/EXP-1 PRIME 15 Dec 03:57:00 04:01:31 71° 290° (WNW) 04:05:44 437.505
YUBILEINY 15 Dec 04:04:12 04:12:26 43° 287° (WNW) 04:20:46 435.215
KKS-1 15 Dec 04:11:24 04:15:50 65° 74° (ENE) 04:20:15 437.445
BEESAT 3 15 Dec 04:24:17 04:28:12 60° 55° (NE) 04:32:01 437.485
DOVE 4 15 Dec 04:31:49 04:36:07 44° 98° (E) 04:40:10 437.250
AO-7 15 Dec 04:35:38 04:43:38 52° 297° (WNW) 04:51:38 .
STARS 15 Dec 04:53:15 04:57:37 73° 75° (ENE) 05:02:01 437.465
CUTE-I 15 Dec 05:03:02 05:06:05 15° 90° (E) 05:09:07 437.470
BEESAT 2 15 Dec 05:05:12 05:09:06 45° 53° (NE) 05:12:55 435.950
ITAMSAT 1 15 Dec 05:13:31 05:17:03 19° 298° (WNW) 05:20:34 435.822/435.867
AO-85 15 Dec 05:14:51 05:18:39 23° 45° (NE) 05:22:40 145.980
PCSat 15 Dec 05:18:58 05:21:31 13° 257° (WSW) 05:24:04 145.827
LilacSat-2 15 Dec 05:19:05 05:22:22 25° 95° (E) 05:25:36 437.200
XW-2D 15 Dec 05:32:36 05:36:09 34° 97° (E) 05:39:41 145.860 - 145.880
NUDT-PHONESAT 15 Dec 05:35:26 05:38:31 24° 95° (E) 05:41:36 437.300
KAITUO 1B 15 Dec 05:39:48 05:43:09 29° 96° (E) 05:46:27 145.475/437.950
NO-84 15 Dec 05:39:51 05:42:23 26° 129° (SE) 05:45:04 435.350 FM
XW-2B 15 Dec 05:48:20 05:52:07 52° 99° (E) 05:55:52 145.730 - 145.750
KKS-1 15 Dec 05:51:09 05:52:47 12° 270° (W) 05:54:26 437.445
STRAND 1 15 Dec 05:58:52 06:03:39 42° 70° (ENE) 06:08:28 437.568
XW-2F 15 Dec 05:59:58 06:03:48 70° 101° (E) 06:07:36 145.980 - 146.000
BEESAT 3 15 Dec 06:03:50 06:05:11 11° 252° (WSW) 06:06:30 437.485
DOVE 4 15 Dec 06:10:27 06:13:24 17° 296° (WNW) 06:16:16 437.250
XW-2C 15 Dec 06:15:44 06:19:35 68° 284° (WNW) 06:23:23 145.795 - 145.815
CUBEBUG 2 15 Dec 06:16:29 06:19:17 17° 93° (E) 06:22:06 437.445
AO-7 15 Dec 06:31:29 06:34:28 12° 318° (NW) 06:37:27 .
FO-29 15 Dec 06:33:17 06:40:21 40° 65° (ENE) 06:47:26 435.910
STARS 15 Dec 06:33:58 06:34:25 10° 270° (W) 06:34:52 437.465
SEEDS 15 Dec 06:34:59 06:38:36 26° 95° (E) 06:42:11 437.485
HO-68 15 Dec 06:38:19 06:45:16 50° 100° (E) 06:52:09 435.675
CUTE-I 15 Dec 06:41:18 06:46:36 67° 287° (WNW) 06:51:51 437.470
BEESAT 2 15 Dec 06:43:56 06:46:26 16° 250° (WSW) 06:48:54 435.950
AAUSAT CUBESAT 2 15 Dec 06:52:54 06:55:45 18° 92° (E) 06:58:34 437.432
LilacSat-2 15 Dec 06:53:25 06:56:30 23° 291° (WNW) 06:59:34 437.200
AO-85 15 Dec 06:54:37 06:59:21 55° 241° (WSW) 07:04:23 145.980
CUTE 1.7 + AOD 2 15 Dec 06:58:28 07:02:47 84° 103° (ESE) 07:07:04 437.475
XW-2D 15 Dec 07:07:30 07:10:02 17° 293° (WNW) 07:12:34 145.860 - 145.880
NUDT-PHONESAT 15 Dec 07:09:16 07:12:14 23° 291° (WNW) 07:15:12 437.300
AO-73 15 Dec 07:12:32 07:15:34 18° 93° (E) 07:18:38 145.935
KAITUO 1B 15 Dec 07:14:09 07:16:55 19° 292° (WNW) 07:19:40 145.475/437.950
NO-84 15 Dec 07:16:49 07:19:33 28° 329° (NNW) 07:22:27 435.350 FM
XW-2B 15 Dec 07:24:17 07:25:49 12° 296° (WNW) 07:27:20 145.730 - 145.750
XW-2A 15 Dec 07:34:55 07:38:18 54° 100° (E) 07:41:39 145.665 - 145.685
STRAND 1 15 Dec 07:38:58 07:42:59 23° 266° (W) 07:47:01 437.568
UWE-3 15 Dec 07:50:16 07:54:36 80° 282° (WNW) 07:59:01 435.000/436.395/437.385
CUBEBUG 2 15 Dec 07:52:01 07:56:03 42° 288° (WNW) 08:00:11 437.445
SEEDS 15 Dec 08:10:39 08:14:11 26° 291° (WNW) 08:17:42 437.485
ZACube-1 15 Dec 08:14:00 08:18:22 84° 284° (WNW) 08:22:50 437.345
O/OREOS (USA 219) 15 Dec 08:15:17 08:19:52 86° 290° (WNW) 08:24:29 437.305
FO-29 15 Dec 08:17:43 08:25:07 48° 263° (W) 08:32:41 435.910
HO-68 15 Dec 08:26:30 08:32:43 33° 298° (WNW) 08:38:53 435.675
AAUSAT CUBESAT 2 15 Dec 08:27:28 08:31:19 37° 289° (WNW) 08:35:08 437.432
TIGRISAT 15 Dec 08:32:08 08:36:13 45° 73° (ENE) 08:40:18 435.000
Oscar 11 15 Dec 08:32:44 08:37:07 88° 98° (E) 08:41:28 .
UNISAT 6 15 Dec 08:35:28 08:39:40 55° 73° (ENE) 08:43:51 437.425
AO-73 15 Dec 08:47:50 08:51:56 41° 288° (WNW) 08:56:06 145.935
NO-84 15 Dec 08:57:14 08:57:46 10° 350° (N) 08:58:20 435.350 FM
PRISM 15 Dec 09:03:34 09:07:18 33° 70° (ENE) 09:11:02 437.425
DELFI C3 15 Dec 09:23:11 09:27:07 64° 101° (E) 09:30:59 145.870
Max Valier Satellite 15 Dec 09:25:29 09:29:05 44° 99° (E) 09:32:39 145.860
EO-88 15 Dec 09:51:56 09:55:35 65° 100° (E) 09:59:13 145.990 - 145.960
QB50P2 15 Dec 09:55:48 09:58:31 17° 65° (ENE) 10:01:15 145.880/145.840
O/OREOS (USA 219) 15 Dec 09:58:49 10:00:00 11° 311° (NW) 10:01:12 437.305
AIST 2D 15 Dec 09:59:01 10:02:21 43° 74° (ENE) 10:05:43 435.315
DUCHIFAT 1 15 Dec 10:00:43 10:02:40 13° 63° (ENE) 10:04:36 145.980
ISS 15 Dec 10:05:49 10:07:44 15° 131° (SE) 10:09:39 437.550
TIGRISAT 15 Dec 10:10:38 10:13:09 15° 268° (W) 10:15:39 435.000
UNISAT 6 15 Dec 10:14:49 10:16:42 13° 269° (W) 10:18:35 437.425
LO-87 15 Dec 10:21:16 10:23:36 16° 93° (E) 10:25:55 145.935 - 145.965
NANOSAT C BR1 15 Dec 10:25:42 10:29:14 27° 69° (ENE) 10:32:47 145.865
NO-84 15 Dec 10:35:19 10:36:25 11° 13° (NNE) 10:37:31 435.350 FM
PRISM 15 Dec 10:39:29 10:42:36 20° 266° (W) 10:45:45 437.425
EO-79 15 Dec 10:40:56 10:44:57 46° 72° (ENE) 10:48:58 145.935-145.965
ESTCUBE 1 15 Dec 10:45:46 10:49:40 28° 95° (E) 10:53:33 437.505/2401.250
nSIGHT-1 15 Dec 10:56:07 10:59:17 63° 142° (SE) 11:02:29 .
DELFI C3 15 Dec 11:00:25 11:01:17 11° 297° (WNW) 11:02:09 145.870
Max Valier Satellite 15 Dec 11:00:44 11:02:29 13° 295° (WNW) 11:04:13 145.860
POLYITAN 1 15 Dec 11:03:56 11:08:06 85° 80° (E) 11:12:19 437.675
Gurwin Techsat 1B 15 Dec 11:10:44 11:12:02 11° 56° (ENE) 11:13:20 435.225
AO-91 15 Dec 11:16:09 11:18:17 13° 65° (ENE) 11:20:20 145.960
SPROUT 15 Dec 11:16:31 11:18:33 13° 91° (E) 11:20:36 437.525
QB50P2 15 Dec 11:29:59 11:33:58 42° 261° (W) 11:37:58 145.880/145.840
DUCHIFAT 1 15 Dec 11:33:44 11:37:49 57° 259° (W) 11:41:56 145.980
AIST 2D 15 Dec 11:34:52 11:35:44 11° 270° (W) 11:36:37 435.315
ISS 15 Dec 11:40:36 11:43:52 65° 327° (NNW) 11:47:08 437.550
LO-87 15 Dec 11:53:58 11:57:02 28° 289° (WNW) 12:00:06 145.935 - 145.965
AO-7 15 Dec 11:56:12 11:59:09 12° 42° (NE) 12:02:07 .
Oscar 19 15 Dec 11:58:25 12:03:08 38° 69° (ENE) 12:07:53 437.125/150
NANOSAT C BR1 15 Dec 12:01:28 12:04:53 24° 265° (W) 12:08:19 145.865
NO-84 15 Dec 12:11:17 12:14:36 30° 32° (NNE) 12:18:07 435.350 FM
BUGSAT 1 15 Dec 12:11:18 12:15:21 87° 76° (ENE) 12:19:23 437.445
VELOX 1 15 Dec 12:15:55 12:19:59 35° 98° (E) 12:24:00 145.980
YUBILEINY 15 Dec 12:17:54 12:24:17 21° 63° (ENE) 12:30:35 435.215
EO-79 15 Dec 12:18:35 12:20:56 15° 268° (W) 12:23:18 145.935-145.965
ESTCUBE 1 15 Dec 12:22:30 12:26:24 29° 292° (WNW) 12:30:17 437.505/2401.250
RS-15 15 Dec 12:27:05 12:35:29 22° 99° (E) 12:43:49 29.354- 29.394
nSIGHT-1 15 Dec 12:33:04 12:35:43 23° 339° (NNW) 12:38:24 .
Gurwin Techsat 1B 15 Dec 12:45:45 12:51:03 77° 75° (ENE) 12:56:24 435.225
AO-91 15 Dec 12:49:25 12:54:19 71° 258° (WSW) 12:58:46 145.960
50 SAT 15 Dec 12:50:33 12:52:12 13° 94° (E) 12:53:50 437.505
SPROUT 15 Dec 12:50:37 12:54:45 52° 287° (WNW) 12:58:52 437.525
UKube-1 15 Dec 12:54:03 12:55:18 11° 90° (E) 12:56:34 .
DX 1 15 Dec 13:09:21 13:13:06 28° 96° (E) 13:16:49 434.975-435.025
M-CUBED/EXP-1 PRIME 15 Dec 13:09:25 13:12:12 17° 57° (ENE) 13:15:03 437.505
ITAMSAT 1 15 Dec 13:15:21 13:17:30 13° 58° (ENE) 13:19:38 435.822/435.867
ISS 15 Dec 13:18:28 13:20:50 18° 346° (NNW) 13:23:12 437.550
Oscar 19 15 Dec 13:38:17 13:42:32 26° 265° (W) 13:46:49 437.125/150
AO-7 15 Dec 13:42:04 13:50:00 52° 64° (ENE) 13:57:58 .
NO-84 15 Dec 13:48:19 13:51:57 41° 228° (SW) 13:55:48 435.350 FM
VELOX 1 15 Dec 13:52:49 13:56:11 22° 294° (WNW) 13:59:32 145.980
nSIGHT-1 15 Dec 14:11:01 14:12:47 14° 360° (N) 14:14:34 .
YUBILEINY 15 Dec 14:13:22 14:22:14 84° 263° (W) 14:31:00 435.215
SO-50 15 Dec 14:17:18 14:20:58 26° 113° (ESE) 14:24:41 436.795
MOZHAYETS 4 15 Dec 14:19:35 14:23:18 23° 94° (E) 14:26:59
50 SAT 15 Dec 14:21:29 14:24:10 26° 289° (WNW) 14:26:50 437.505
UKube-1 15 Dec 14:27:27 14:31:43 64° 286° (WNW) 14:35:58 .
Gurwin Techsat 1B 15 Dec 14:29:07 14:31:34 13° 271° (W) 14:34:01 435.225
RS-15 15 Dec 14:33:49 14:46:09 84° 119° (ESE) 14:58:25 29.354- 29.394
M-CUBED/EXP-1 PRIME 15 Dec 14:41:46 14:46:02 58° 255° (WSW) 14:50:33 437.505
DX 1 15 Dec 14:45:33 14:49:11 26° 293° (WNW) 14:52:47 434.975-435.025
BEESAT 15 Dec 14:47:46 14:51:57 30° 96° (E) 14:56:07 436.000
ITAMSAT 1 15 Dec 14:50:57 14:56:10 90° 97° (E) 15:01:24 435.822/435.867
ISS 15 Dec 14:56:15 14:58:16 15° 6° (N) 15:00:17 437.550
ITUPSAT 1 15 Dec 15:16:21 15:21:04 57° 101° (E) 15:25:45 437.325
AO-7 15 Dec 15:35:29 15:42:56 36° 262° (W) 15:50:29 .
DOVE 4 15 Dec 15:36:02 15:41:06 50° 73° (ENE) 15:46:02 437.250
CUBESAT XI-V 15 Dec 15:44:43 15:49:14 43° 98° (E) 15:53:42 437.345
nSIGHT-1 15 Dec 15:47:15 15:49:52 22° 20° (NNE) 15:52:29 .
MOZHAYETS 4 15 Dec 15:56:18 16:00:29 35° 290° (WNW) 16:04:41
SO-50 15 Dec 15:57:07 16:01:16 36° 311° (NW) 16:05:27 436.795
LilacSat-2 15 Dec 16:02:10 16:04:10 14° 65° (ENE) 16:06:10 437.200
KKS-1 15 Dec 16:04:13 16:05:50 12° 90° (E) 16:07:26 437.445
YUBILEINY 15 Dec 16:12:42 16:17:35 16° 284° (WNW) 16:22:27 435.215
XW-2D 15 Dec 16:14:28 16:17:05 18° 67° (ENE) 16:19:43 145.860 - 145.880
NUDT-PHONESAT 15 Dec 16:15:59 16:17:23 12° 64° (ENE) 16:18:49 437.300
KAITUO 1B 15 Dec 16:20:41 16:22:49 15° 66° (ENE) 16:24:57 145.475/437.950
CUTE-I 15 Dec 16:24:25 16:28:52 27° 65° (ENE) 16:33:18 437.470
BEESAT 15 Dec 16:25:33 16:29:39 29° 293° (WNW) 16:33:44 436.000
XW-2B 15 Dec 16:29:46 16:32:54 25° 69° (ENE) 16:36:05 145.730 - 145.750
ISS 15 Dec 16:32:26 16:35:29 34° 26° (NNE) 16:38:31 437.550
ITAMSAT 1 15 Dec 16:35:23 16:36:18 10° 272° (W) 16:37:13 435.822/435.867
XW-2F 15 Dec 16:40:41 16:44:03 32° 71° (ENE) 16:47:28 145.980 - 146.000
STARS 15 Dec 16:44:11 16:46:01 12° 91° (E) 16:47:51 437.465
O/OREOS (USA 219) 15 Dec 16:46:43 16:50:05 20° 56° (NE) 16:53:25 437.305
RS-15 15 Dec 16:49:01 17:00:09 37° 325° (NW) 17:11:07 29.354- 29.394
ITUPSAT 1 15 Dec 16:55:26 16:58:24 17° 298° (WNW) 17:01:24 437.325
XW-2C 15 Dec 16:56:34 17:00:16 55° 74° (ENE) 17:04:00 145.795 - 145.815
HO-68 15 Dec 17:07:10 17:13:40 39° 64° (ENE) 17:20:11 435.675
DOVE 4 15 Dec 17:15:04 17:18:57 21° 268° (W) 17:22:47 437.250
CUBEBUG 2 15 Dec 17:15:37 17:17:51 14° 64° (ENE) 17:20:05 437.445
CUBESAT XI-V 15 Dec 17:22:49 17:26:16 21° 295° (WNW) 17:29:43 437.345
nSIGHT-1 15 Dec 17:23:07 17:26:20 68° 218° (SW) 17:29:31 .
SEEDS 15 Dec 17:27:03 17:30:06 20° 66° (ENE) 17:33:10 437.485
LilacSat-2 15 Dec 17:34:24 17:38:02 43° 262° (W) 17:41:43 437.200
KKS-1 15 Dec 17:38:24 17:42:47 64° 287° (WNW) 17:47:08 437.445
AAUSAT CUBESAT 2 15 Dec 17:44:02 17:45:57 13° 63° (ENE) 17:47:52 437.432
NUDT-PHONESAT 15 Dec 17:47:12 17:50:46 48° 261° (W) 17:54:24 437.300
XW-2D 15 Dec 17:47:37 17:51:00 31° 263° (W) 17:54:26 145.860 - 145.880
CUTE 1.7 + AOD 2 15 Dec 17:50:44 17:54:54 58° 74° (ENE) 17:59:07 437.475
KAITUO 1B 15 Dec 17:52:55 17:56:26 39° 262° (W) 18:00:00 145.475/437.950
CUTE-I 15 Dec 18:03:39 18:08:40 40° 262° (W) 18:13:44 437.470
XW-2B 15 Dec 18:04:04 18:07:01 21° 266° (W) 18:10:00 145.730 - 145.750
XW-2A 15 Dec 18:06:38 18:08:58 18° 68° (ENE) 18:11:19 145.665 - 145.685
ISS 15 Dec 18:08:58 18:11:56 32° 224° (SW) 18:14:53 437.550
AO-73 15 Dec 18:09:12 18:11:20 14° 64° (ENE) 18:13:28 145.935
STRAND 1 15 Dec 18:10:38 18:13:12 14° 90° (E) 18:15:45 437.568
PCSat 15 Dec 18:14:53 18:20:16 73° 117° (ESE) 18:25:41 145.827
XW-2F 15 Dec 18:15:43 18:18:13 17° 267° (W) 18:20:45 145.980 - 146.000
STARS 15 Dec 18:18:25 18:22:43 59° 287° (WNW) 18:27:00 437.465
O/OREOS (USA 219) 15 Dec 18:25:26 18:29:41 42° 254° (WSW) 18:33:53 437.305
UWE-3 15 Dec 18:47:10 18:51:19 81° 76° (ENE) 18:55:28 435.000/436.395/437.385
CUBEBUG 2 15 Dec 18:49:59 18:54:04 50° 260° (W) 18:58:07 437.445
HO-68 15 Dec 18:54:32 19:01:16 43° 261° (W) 19:08:04 435.675
SEEDS 15 Dec 19:01:36 19:05:30 36° 263° (W) 19:09:28 437.485
RS-15 15 Dec 19:08:30 19:17:34 23° 360° (N) 19:26:22 29.354- 29.394
ZACube-1 15 Dec 19:09:42 19:13:48 74° 76° (ENE) 19:17:58 437.345
AAUSAT CUBESAT 2 15 Dec 19:16:46 19:20:53 58° 260° (W) 19:25:01 437.432
Oscar 11 15 Dec 19:27:11 19:31:27 67° 75° (ENE) 19:35:46 .
FO-29 15 Dec 19:28:48 19:34:34 29° 91° (E) 19:39:43 435.910
CUTE 1.7 + AOD 2 15 Dec 19:29:23 19:31:06 12° 270° (W) 19:32:49 437.475
XW-2A 15 Dec 19:38:46 19:41:29 23° 264° (W) 19:44:15 145.665 - 145.685
AO-73 15 Dec 19:43:06 19:47:07 51° 261° (W) 19:51:10 145.935
STRAND 1 15 Dec 19:47:47 19:52:52 69° 287° (WNW) 19:57:55 437.568
BEESAT 3 15 Dec 19:50:22 19:54:20 81° 303° (WNW) 19:58:21 437.485
PCSat 15 Dec 20:00:18 20:04:13 20° 316° (NW) 20:08:10 145.827
Max Valier Satellite 15 Dec 20:04:46 20:07:31 20° 68° (ENE) 20:10:16 145.860
DELFI C3 15 Dec 20:08:10 20:11:49 35° 71° (ENE) 20:15:29 145.870
UNISAT 6 15 Dec 20:28:46 20:30:08 11° 90° (E) 20:31:31 437.425
EO-88 15 Dec 20:29:34 20:32:41 27° 71° (ENE) 20:35:49 145.990 - 145.960
BEESAT 2 15 Dec 20:33:04 20:37:04 79° 123° (ESE) 20:41:08 435.950
FALCONSAT 3 15 Dec 21:00:02 21:01:45 13° 156° (SSE) 21:03:27 435.103
Oscar 11 15 Dec 21:07:04 21:08:01 11° 271° (W) 21:08:59 .
AO-85 15 Dec 21:09:35 21:13:17 44° 117° (ESE) 21:17:10 145.980
FO-29 15 Dec 21:13:20 21:19:54 48° 292° (WNW) 21:25:43 435.910
RS-15 15 Dec 21:24:06 21:34:56 37° 34° (NE) 21:45:12 29.354- 29.394
BEESAT 3 15 Dec 21:31:14 21:32:31 11° 322° (NW) 21:33:49 437.485
Max Valier Satellite 15 Dec 21:38:07 21:41:10 25° 264° (W) 21:44:15 145.860
DELFI C3 15 Dec 21:43:58 21:46:39 17° 267° (W) 21:49:21 145.870
ESTCUBE 1 15 Dec 21:45:24 21:49:10 26° 67° (ENE) 21:52:56 437.505/2401.250
TIGRISAT 15 Dec 21:59:14 22:03:36 79° 285° (WNW) 22:08:02 435.000
UNISAT 6 15 Dec 22:02:54 22:07:14 65° 285° (WNW) 22:11:38 437.425
EO-88 15 Dec 22:03:44 22:06:19 18° 266° (W) 22:08:56 145.990 - 145.960
SPROUT 15 Dec 22:11:00 22:12:18 11° 62° (ENE) 22:13:35 437.525
BEESAT 2 15 Dec 22:13:14 22:15:18 14° 320° (NW) 22:17:25 435.950
PRISM 15 Dec 22:19:09 22:23:10 50° 100° (E) 22:27:07 437.425
LO-87 15 Dec 22:29:01 22:32:32 75° 257° (WSW) 22:36:05 145.935 - 145.965
FALCONSAT 3 15 Dec 22:37:03 22:40:12 27° 171° (S) 22:43:23 435.103
SO-50 15 Dec 22:47:30 22:51:33 28° 47° (NE) 22:55:37 436.795
POLYITAN 1 15 Dec 22:49:56 22:52:03 13° 91° (E) 22:54:09 437.675
AO-85 15 Dec 22:50:58 22:53:55 19° 317° (NW) 22:56:59 145.980
AIST 2D 15 Dec 22:56:17 22:59:46 52° 99° (E) 23:03:14 435.315
VELOX 1 15 Dec 23:13:02 23:17:00 33° 69° (ENE) 23:21:00 145.980
QB50P2 15 Dec 23:14:28 23:18:08 28° 96° (E) 23:21:48 145.880/145.840
DUCHIFAT 1 15 Dec 23:17:49 23:21:01 21° 94° (E) 23:24:13 145.980
ESTCUBE 1 15 Dec 23:21:52 23:25:50 30° 264° (W) 23:29:50 437.505/2401.250
RS-15 15 Dec 23:36:56 23:48:44 81° 241° (WSW) 23:59:53 29.354- 29.394
SPROUT 15 Dec 23:43:22 23:47:35 70° 258° (WSW) 23:51:50 437.525
NANOSAT C BR1 15 Dec 23:44:21 23:48:27 48° 100° (E) 23:52:31 145.865
UKube-1 15 Dec 23:49:12 23:50:23 11° 61° (ENE) 23:51:35 .
BUGSAT 1 15 Dec 23:54:36 23:56:04 12° 91° (E) 23:57:31 437.445
PRISM 15 Dec 23:55:50 23:57:59 14° 297° (WNW) 00:00:07 437.425
EO-79 16 Dec 00:00:30 00:04:44 86° 103° (ESE) 00:08:58 145.935-145.965
DX 1 16 Dec 00:04:58 00:08:35 26° 67° (ENE) 00:12:13 434.975-435.025
Oscar 19 16 Dec 00:11:25 00:13:43 13° 89° (E) 00:16:02 437.125/150
FALCONSAT 3 16 Dec 00:15:37 00:18:51 29° 186° (S) 00:22:05 435.103
POLYITAN 1 16 Dec 00:24:00 00:28:06 51° 287° (WNW) 00:32:12 437.675
SO-50 16 Dec 00:27:44 00:32:05 38° 244° (WSW) 00:36:27 436.795
AIST 2D 16 Dec 00:32:02 00:32:27 10° 296° (WNW) 00:32:51 435.315
AO-91 16 Dec 00:40:31 00:42:41 16° 93° (E) 00:44:48 145.960
50 SAT 16 Dec 00:46:38 00:49:47 77° 76° (ENE) 00:52:58 437.505
VELOX 1 16 Dec 00:49:54 00:53:28 23° 265° (W) 00:57:02 145.980
QB50P2 16 Dec 00:50:22 00:53:48 24° 292° (WNW) 00:57:14 145.880/145.840
DUCHIFAT 1 16 Dec 00:52:58 00:56:43 32° 290° (WNW) 01:00:27 145.980
Gurwin Techsat 1B 16 Dec 01:02:11 01:06:49 29° 96° (E) 01:11:24 435.225
YUBILEINY 16 Dec 01:20:19 01:26:46 23° 80° (E) 01:33:14 435.215
PCSat 16 Dec 01:21:13 01:23:23 12° 36° (NE) 01:25:34 145.827
NANOSAT C BR1 16 Dec 01:21:18 01:23:44 15° 296° (WNW) 01:26:11 145.865
UKube-1 16 Dec 01:21:27 01:25:46 76° 257° (WSW) 01:30:06 .
MOZHAYETS 4 16 Dec 01:21:44 01:25:19 23° 66° (ENE) 01:28:54
BUGSAT 1 16 Dec 01:27:46 01:31:43 54° 286° (WNW) 01:35:41 437.445
DX 1 16 Dec 01:40:50 01:44:39 29° 263° (W) 01:48:28 434.975-435.025
AO-7 16 Dec 01:45:53 01:49:54 14° 88° (E) 01:53:54 .
Oscar 19 16 Dec 01:48:22 01:53:35 76° 286° (WNW) 01:58:46 437.125/150
RS-15 16 Dec 01:51:57 01:59:05 19° 263° (W) 02:06:04 29.354- 29.394
BEESAT 16 Dec 01:54:08 01:58:27 36° 69° (ENE) 02:02:47 436.000
FALCONSAT 3 16 Dec 01:55:09 01:57:22 15° 201° (SSW) 01:59:34 435.103
AO-91 16 Dec 02:16:22 02:19:14 25° 291° (WNW) 02:22:02 145.960
ITUPSAT 1 16 Dec 02:22:59 02:27:41 69° 74° (ENE) 02:32:26 437.325
